SCP
0 0 0 0 0 0 0 0 0 0 0 1 1 2 3 3 3 4 4 5 6 7 8 10 12 12 10 9 9 8 7 6 7 6 5 3 3 2 2 1 1 1 1 1
0 0 0 0 0 0 0 0 0 0 1 1 1 2 3 3 3 4 5 6 8 9 9 10 11 12 11 9 10 9 8 7 7 6 5 3 3 2 2 1 1 1 1 1
0 0 0 0 0 0 0 0 0 0 0 1 1 2 2 3 3 3 4 7 9 9 8 9 10 10 9 9 9 9 8 7 7 6 4 4 3 3 2 1 1 1 1 1
0 0 0 0 0 0 0 0 0 0 0 0 1 1 2 2 2 2 3 4 6 6 5 6 7 6 5 5 6 8 8 7 6 5 4 3 3 3 2 1 0 0 0 0
0 0 0 0 0 0 0 0 0 0 0 0 0 0 1 2 2 2 2 2 2 2 3 3 4 3 2 2 4 6 6 5 4 4 3 3 2 2 1 0 0 0 0 0
0 0 0 0 0 0 0 0 0 0 0 0 0 0 1 1 2 2 1 1 2 1 1 1 1 1 1 1 2 3 3 2 2 2 2 2 1 1 0 0 0 0 0 0
0 0 0 0 0 0 0 0 0 0 0 0 0 0 1 1 1 1 1 1 1 1 1 0 0 0 0 0 0 0 0 0 0 1 1 1 1 0 0 0 0 0 0 0
0 0 0 0 0 0 0 0 0 0 0 0 0 0 1 1 1 1 1 0 0 0 0 0 0 0 0 0 0 0 0 0 0 0 0 0 0 0 0 0 0 0 0 0
0 0 0 0 0 0 0 0 0 0 0 0 0 0 1 1 1 1 0 0 0 0 0 0 0 0 0 0 0 0 0 0 0 0 0 0 0 0 0 0 0 0 0 0
0 0 0 0 0 0 0 0 0 0 0 0 0 0 1 1 1 1 0 0 0 0 0 0 0 0 0 0 0 0 0 0 0 0 0 0 0 0 0 0 0 0 0 0
0 0 0 0 0 0 0 0 0 0 0 0 0 0 1 1 1 0 0 0 0 0 0 0 0 0 0 0 0 0 0 0 0 0 0 0 0 0 0 0 0 0 0 0
0 0 0 0 0 0 0 0 0 0 0 0 0 0 1 1 1 0 0 0 0 0 0 0 0 0 0 0 0 0 0 0 0 0 0 0 0 0 0 0 0 0 0 0
0 0 0 0 0 0 0 0 0 0 0 0 0 0 1 1 0 0 0 0 0 0 0 0 0 0 0 0 0 0 0 0 0 0 0 0 0 0 0 0 0 0 0 0
0 0 0 0 0 0 0 0 0 0 0 0 0 0 0 0 0 0 0 0 0 0 0 0 0 0 0 0 0 0 0 0 0 0 0 0 0 0 0 0 0 0 0 0
0 0 0 0 0 0 0 1 1 1 0 0 1 1 1 0 0 0 0 0 0 0 0 0 0 0 0 0 0 0 0 0 0 0 0 0 0 0 0 0 0 0 0 0
0 0 0 0 0 0 1 1 1 1 1 1 1 1 1 0 0 0 0 0 0 0 0 0 0 0 0 0 0 0 0 0 0 0 0 0 0 0 0 0 0 0 0 0
0 0 0 0 0 0 0 1 1 1 1 1 1 1 0 0 0 0 0 0 0 0 0 0 0 0 0 0 0 0 0 0 0 0 0 0 0 0 0 0 0 0 0 0
0 0 0 0 0 0 0 0 0 1 1 1 1 0 0 0 0 0 0 0 0 0 0 0 0 0 0 0 0 0 0 0 0 0 0 0 0 0 0 0 0 0 0 0
0 0 0 0 0 0 0 0 0 0 0 0 0 0 0 0 0 0 0 0 0 0 0 0 0 0 0 0 0 0 0 0 0 0 0 0 0 0 0 0 0 0 0 0
0 0 0 0 0 0 0 0 0 0 0 0 0 0 0 0 0 0 0 0 0 0 0 0 0 0 0 0 0 0 0 0 0 0 0 0 0 0 0 0 0 0 0 0
0 0 0 0 0 0 0 0 0 0 0 0 0 0 0 0 0 0 0 0 0 0 0 0 0 0 0 0 0 0 0 0 0 0 0 0 0 0 0 0 0 0 0 0
0 0 0 0 0 0 0 0 0 0 0 0 0 0 0 0 0 0 0 0 0 0 0 0 0 0 0 0 0 0 0 0 0 0 0 0 0 0 0 0 0 0 0 0
0 0 0 0 0 0 0 0 0 0 0 0 0 0 0 0 0 0 0 0 0 0 0 0 0 0 0 0 0 0 0 0 0 0 0 0 0 0 0 0 0 0 0 0
0 0 0 0 0 0 0 0 0 0 0 0 0 0 0 0 0 0 0 0 0 0 0 0 0 0 0 0 0 0 0 0 0 0 0 0 0 0 0 0 0 0 0 0
0 0 0 0 0 0 0 0 0 0 0 0 0 0 0 0 0 0 0 0 0 0 0 0 0 0 0 0 0 0 0 0 0 0 0 0 0 0 0 0 0 0 0 0
0 0 0 0 0 0 0 0 0 0 0 0 0 0 0 0 0 0 0 0 0 0 0 0 0 0 0 0 0 0 0 0 0 0 0 0 0 0 0 0 0 0 0 0
Wind_Speed
3 1 5 10 9 9 8 10 12 15 11 5 7 6 4 4 7 8 7 8 8 7 7 7 8 8 8 7 6 4 4 7 7 5 6 5 4 4 5 5 6 5 5 4
4 6 14 12 10 8 10 11 12 11 8 3 2 5 9 12 11 11 11 11 10 10 10 11 10 10 9 8 6 4 3 3 5 4 4 5 6 6 5 5 7 7 6 6
7 11 10 8 9 8 8 7 7 6 8 5 5 7 9 11 13 14 14 13 12 12 12 12 12 11 9 9 8 6 6 4 4 5 6 7 6 5 5 6 6 8 9 9
7 8 7 7 7 5 7 7 5 4 3 5 3 3 3 7 11 12 12 12 12 11 12 12 13 12 11 10 10 9 9 7 6 6 7 8 7 6 6 6 7 9 10 10
6 5 5 6 8 5 7 7 5 4 3 3 2 5 2 4 8 9 10 12 11 11 12 13 12 12 11 10 10 10 11 9 8 9 8 9 9 9 7 7 9 9 9 10
7 5 4 5 7 5 5 4 6 3 3 2 3 4 3 2 7 9 9 10 11 11 11 13 12 12 11 11 11 11 11 10 10 11 11 11 11 11 10 9 9 8 7 7
7 7 5 3 4 7 3 4 4 5 4 4 2 5 2 4 9 10 10 10 11 11 11 13 13 12 11 12 12 12 12 12 12 12 12 11 11 11 11 9 9 8 7 7
3 8 5 1 2 3 2 6 6 3 2 4 5 6 5 8 11 12 10 11 11 11 12 13 12 11 11 12 12 12 12 12 12 13 13 12 11 9 9 10 9 8 7 7
4 6 5 4 4 3 1 2 6 6 1 0 2 5 5 7 11 11 11 11 10 10 11 12 12 11 11 13 13 12 12 13 13 13 13 13 12 12 12 11 9 8 7 7
5 5 6 4 2 0 4 2 4 4 3 1 0 3 5 10 11 11 11 11 10 10 11 11 11 11 11 12 12 12 12 13 12 12 11 11 12 12 11 10 10 9 8 7
3 2 5 4 1 1 3 3 3 3 3 4 1 1 2 10 11 12 12 10 10 11 10 10 10 10 11 11 11 11 12 12 11 11 11 11 11 10 10 9 9 8 7 7
3 3 2 5 3 1 3 2 4 3 1 2 3 1 4 10 11 12 13 11 10 11 11 11 10 10 10 11 11 11 10 11 10 10 10 10 10 9 9 8 7 7 7 6
5 4 3 6 6 7 3 1 2 5 4 3 4 3 5 11 12 11 13 12 11 11 12 11 10 10 10 10 10 9 9 9 9 9 10 10 9 8 7 7 6 6 6 6
6 4 4 4 2 1 3 3 1 4 4 4 5 8 8 11 12 11 12 12 11 11 11 10 10 9 9 8 8 9 8 7 8 8 8 8 6 6 6 5 5 5 5 6
5 3 0 1 1 2 1 2 3 3 4 6 8 9 11 12 12 12 12 12 12 11 11 11 10 9 8 8 7 7 7 6 7 7 7 6 5 5 5 5 5 4 5 6
4 4 2 3 3 5 5 4 5 6 6 9 11 6 8 11 10 12 12 12 12 12 12 11 10 9 8 8 7 7 6 6 6 6 6 5 5 5 5 4 4 5 5 5
3 5 4 1 1 4 4 1 4 5 4 7 6 6 14 13 12 13 13 12 12 11 12 11 9 7 7 6 7 6 6 6 6 5 5 5 5 5 4 5 5 5 4 4
6 4 3 2 2 3 1 2 10 10 7 5 8 11 11 10 9 8 9 11 12 11 11 9 8 7 6 5 5 5 6 5 5 5 5 5 5 5 4 4 4 3 3 3
6 7 4 3 3 3 3 3 5 7 4 4 11 13 12 14 11 7 6 8 9 9 9 8 6 6 6 6 5 6 5 5 5 5 5 5 5 5 4 4 2 1 2 2
3 5 5 4 4 2 2 4 9 11 4 4 11 14 14 10 6 5 8 10 10 9 8 7 6 6 6 4 5 6 6 5 5 5 5 5 5 5 4 2 1 1 1 1
2 3 3 3 3 1 1 6 5 2 7 9 10 12 9 4 5 10 12 10 9 9 8 7 7 5 4 5 6 6 6 5 5 5 5 4 4 4 3 1 1 1 2 2
4 3 2 3 3 3 3 3 3 5 6 11 9 9 9 11 14 13 12 11 10 9 7 7 6 5 4 5 7 6 5 4 5 5 5 4 3 2 3 3 3 3 3 3
3 5 5 4 3 3 1 5 5 8 11 8 8 11 14 14 13 12 10 10 8 8 6 5 6 6 5 5 6 6 4 4 5 5 4 3 3 3 3 3 4 3 4 3
3 4 6 5 3 5 7 8 8 10 10 11 13 14 14 14 13 11 10 8 7 6 6 6 7 6 5 4 5 5 4 5 5 4 3 3 3 3 3 3 3 3 3 3
6 5 6 6 6 7 6 8 12 13 15 15 13 12 12 14 12 10 9 8 7 6 5 6 6 6 5 4 4 4 4 5 4 3 2 2 2 3 3 3 2 3 2 2
3 8 9 8 10 8 7 8 15 15 14 15 15 12 10 10 10 9 8 7 6 6 6 6 6 6 5 5 4 4 4 4 4 2 2 2 2 2 3 3 2 3 2 2
Wind_Direction
287 86 247 243 226 221 246 265 272 277 283 281 240 236 273 37 68 73 73 85 89 90 79 80 85 88 89 88 91 102 132 145 149 150 138 122 115 100 85 76 68 72 74 81
343 266 245 243 245 242 249 259 272 285 304 323 105 78 61 61 69 76 78 76 78 74 66 66 68 76 74 75 73 79 60 149 155 148 133 118 114 99 89 77 67 60 65 66
226 252 265 258 253 256 264 245 251 278 318 336 90 61 71 69 74 72 69 70 68 70 67 62 58 58 59 60 56 52 37 36 93 117 115 110 101 96 85 72 64 52 56 61
247 261 284 284 276 257 273 260 257 278 319 300 76 113 83 91 77 71 70 69 66 63 64 63 60 54 50 50 53 52 47 40 54 83 104 115 114 107 95 94 85 67 57 59
267 287 303 287 267 266 255 268 275 262 251 298 355 115 172 123 98 86 78 76 70 65 66 64 60 59 51 50 56 51 51 41 52 67 80 90 94 99 99 93 85 74 62 60
264 271 250 254 276 264 272 326 338 18 74 295 263 136 186 182 133 114 95 86 78 70 67 66 60 57 52 50 55 56 57 46 57 70 74 89 103 107 103 92 85 74 66 59
311 306 291 268 326 327 20 70 18 357 12 266 308 97 68 75 109 114 106 91 80 71 66 62 59 56 53 53 55 57 62 55 54 66 72 79 92 97 97 93 86 83 74 66
285 296 290 289 194 255 280 140 157 192 236 295 16 80 80 84 95 97 95 89 80 74 71 68 63 60 57 57 55 60 64 63 58 64 68 70 77 83 83 82 84 82 79 74
213 264 282 288 259 190 265 216 176 147 192 48 75 114 117 114 111 109 102 91 83 79 78 76 72 68 64 64 61 62 68 69 67 70 73 72 75 81 85 84 82 81 79 79
180 260 289 301 349 57 166 170 74 100 144 221 277 153 173 162 144 127 114 107 100 91 85 81 77 74 71 71 70 69 71 73 72 73 77 81 78 80 83 84 83 81 77 73
148 198 306 350 30 314 26 59 89 108 145 152 188 280 312 160 150 134 122 115 110 103 96 88 83 80 79 77 76 75 74 76 76 77 79 81 79 79 80 80 79 78 75 72
163 127 286 278 262 252 120 134 127 129 247 140 138 3 34 123 126 127 122 117 111 107 102 96 92 88 84 82 81 80 80 80 80 81 82 82 80 80 81 80 78 77 76 71
137 105 21 351 358 15 44 48 133 137 125 145 140 136 97 115 119 123 123 120 116 112 108 104 100 96 93 91 90 88 86 87 85 85 85 82 79 80 80 80 77 75 75 73
113 104 148 185 222 326 351 356 60 122 136 152 154 144 146 137 131 126 122 121 118 116 114 111 106 103 101 100 98 97 93 91 92 88 86 83 81 81 82 81 77 75 78 81
98 104 142 219 158 116 95 24 46 98 144 149 149 149 158 151 142 135 130 127 125 123 119 117 113 109 106 104 102 103 101 97 97 93 89 89 87 85 83 78 74 72 76 88
98 123 91 46 83 90 87 74 70 72 87 111 119 112 127 127 128 133 135 135 132 129 125 122 118 115 114 115 113 109 107 105 104 102 102 100 93 89 86 84 78 74 74 81
119 121 101 44 50 71 43 13 87 79 82 123 138 141 137 140 147 147 144 138 136 134 129 124 121 120 119 117 116 116 116 112 108 108 107 104 101 95 94 94 85 82 80 86
128 111 111 114 60 69 289 81 105 90 56 84 112 129 137 132 120 115 130 135 134 132 128 126 126 123 117 112 112 110 109 110 110 106 105 104 103 101 97 93 91 89 91 100
137 132 120 113 101 115 158 164 144 111 70 96 122 124 118 115 101 96 115 124 128 128 127 125 123 120 118 118 119 113 110 111 113 115 113 113 114 110 102 98 97 94 96 103
92 100 112 123 123 160 226 156 133 103 114 158 138 138 140 135 133 147 138 126 122 120 120 120 116 113 115 120 116 111 113 112 117 123 123 122 118 117 116 121 121 104 113 129
56 46 81 110 108 120 305 153 142 127 192 164 152 149 149 141 140 135 131 124 124 122 120 119 117 118 125 123 116 115 115 125 133 125 117 116 120 130 132 110 68 73 86 87
131 114 94 107 115 220 302 125 162 183 134 138 140 142 125 115 117 122 126 128 129 126 124 123 119 117 118 121 119 117 127 136 124 117 112 114 126 133 109 79 54 57 78 86
95 151 138 129 175 234 45 107 117 120 121 124 130 131 128 126 128 127 129 132 132 131 131 125 122 115 109 114 119 125 140 128 115 110 115 119 110 93 91 93 86 68 65 80
98 100 95 89 99 99 93 94 95 109 115 121 129 131 132 130 132 131 133 133 132 132 133 128 124 120 119 120 123 134 136 123 116 120 132 128 110 92 79 85 95 96 86 83
158 111 95 101 128 100 90 109 114 110 113 117 121 125 130 132 134 134 135 136 136 133 130 129 132 135 139 132 128 134 134 125 124 134 144 147 135 130 114 96 93 112 129 156
169 145 146 178 181 145 146 135 127 123 125 129 128 124 126 130 132 131 133 135 135 134 131 131 136 140 144 142 143 155 155 142 138 139 157 158 149 144 141 127 75 52 118 119